Location: Peebles
(55.6412°N, 3.1714°W)
Time: 21:53:43
(UTC+01:00)

deb Kosmos-2123 - Pass Details

Date: 12 July 2022
Orbit: 942 x 985 km, 82.9° (Epoch: 17 August)

Event Time Altitude Azimuth Distance (km) Brightness Sun altitude
Exits shadow 00:30:41 15° 168° (SSE) 2,361 ? -11.7°
Maximum altitude 00:35:46 58° 94° (E) 1,129 ? -11.8°
Drops below altitude 10° 00:41:52 10° 17° (NNE) 2,725 ? -12.0°
Sets 00:44:24 0° 13° (NNE) 3,670 ? -12.0°
